Terminal Aerodrome Forecast
Issued by NWS

Home | Current Version | Previous Version | Graphics & Text | Print | Product List | Glossary On
Versions: 1 2 3 4 5 6 7 8 9 10 11 12 13 14 15 16
880
FTUS42 KMHX 112224 AAA
TAFPGV
TAF AMD
KPGV 112224Z 1122/1218 30005KT P6SM SKC
     FM112300 VRB03KT P6SM SKC
     FM121100 05003KT P6SM BKN100
     FM121500 07006KT 4SM -SN OVC020
      AMD LTD TO CLD VIS AND WIND=

USA.gov is the U.S. government's official web portal to all federal, state and local government web resources and services.